Tracking 33831 objects as of 16-Apr-2026
HD Live streaming from Space Station
objects crossing your sky now

COSMOS 839 DEB

Track COSMOS 839 DEB now!
10-day predictions


NORAD ID: 10621
Int'l Code: 1976-067AV
Perigee: 1,017.8 km
Apogee: 2,085.5 km
Inclination: 66.0 °
Period: 117.0 minutes
Semi major axis: 7922 km
RCS: 0.3133 m2 (medium)
Launch date: July 8, 1976
Source: Commonwealth of Independent States (former USSR) (CIS)
Launch site: PLESETSK MISSILE AND SPACE COMPLEX (PKMTR)

Note: This is SATELLITE DEBRIS
Your satellite tracking list
Your tracking list is empty




NASA's NSSDC Master Catalog

Two Line Element Set (TLE):
1 10621U 76067AV  26106.30830240 -.00000097  00000-0 -16619-3 0  9995
2 10621  66.0262  68.2957 0673809 243.4821 299.4801 12.31115404236307
Source of the keplerian elements: AFSPC